Coraopolis, PA

1:57 PM EST on December 02, 2016 (GMT -0500)
Pittsburgh International

Weather History for KPIT - October, 2013

Change the Weather History Date:

Friday, October 4, 2013

  Actual Average Record
Temperature  
Mean Temperature 72 °F 57 °F  
Max Temperature 81 °F 67 °F 90 °F (1884)
Min Temperature 63 °F 47 °F 31 °F (1974)
Degree Days  
Heating Degree Days 0 9  
Month to date heating degree days 0 34  
Since 1 July heating degree days 109 148  
Cooling Degree Days 7 1  
Month to date cooling degree days 17 4  
Year to date cooling degree days 812 732  
Growing Degree Days 22 (Base 50)    
Moisture  
Dew Point 65 °F    
Average Humidity 76    
Maximum Humidity 97    
Minimum Humidity 54    
Precipitation  
Precipitation 0.27 in 0.07 in 1.49 in (1954)
Month to date precipitation 0.62 0.29  
Year to date precipitation 28.69 30.11  
Snow  
Snow 0.00 in 0.00 in 0.00 in (2001)
Month to date snowfall 0.0 0.0  
Since 1 July snowfall 0.0 0.0  
Snow Depth 0.00 in    
Sea Level Pressure  
Sea Level Pressure 30.08 in    
Wind  
Wind Speed 3 mph (WSW)    
Max Wind Speed 24 mph    
Max Gust Speed 26 mph    
Visibility 7 miles    
Events Rain    
T = Trace of Precipitation, MM = Missing Value Source: NWS Daily Summary

Daily Weather History Graph

Daily Weather History Graph

Search for Another Location

Airport or City:

Trip Planner

Search our weather history database for the weather conditions in past years. The results will help you decide how hot, cold, wet, or windy it might be!

Date:

Astronomy

Oct. 04, 2013 Rise Set
Actual Time 7:20 AM EDT 6:57 PM EDT
Civil Twilight 6:53 AM EDT 7:24 PM EDT
Nautical Twilight 6:21 AM EDT 7:56 PM EDT
Astronomical Twilight 5:49 AM EDT 8:28 PM EDT
Moon 6:54 AM EDT (10/4) 6:39 PM EDT (10/4)
Length of Visible Light 12h 31m
Length of Day
11h 37m
Waning Crescent, 0% of the Moon is Illuminated
Oct 4
Waning Crescent
Oct 4
New
Oct 11
First Quarter
Oct 18
Full
Oct 26
Last Quarter

Hourly Weather History & Observations

Time (EDT) Temp. Heat Index Dew Point Humidity Pressure Visibility Wind Dir Wind Speed Gust Speed Precip Events Conditions
12:51 AM 64.9 °F - 63.0 °F 93% 30.07 in 8.0 mi Calm Calm - N/A   Mostly Cloudy
1:51 AM 64.0 °F - 62.1 °F 93% 30.07 in 8.0 mi South 3.5 mph - N/A   Overcast
2:51 AM 64.0 °F - 62.1 °F 93% 30.07 in 7.0 mi Calm Calm - N/A   Overcast
3:51 AM 64.0 °F - 62.1 °F 93% 30.06 in 9.0 mi Calm Calm - N/A   Mostly Cloudy
4:51 AM 63.0 °F - 61.0 °F 93% 30.07 in 7.0 mi Calm Calm - N/A   Mostly Cloudy
5:51 AM 64.9 °F - 62.1 °F 90% 30.08 in 7.0 mi Calm Calm - N/A   Overcast
6:51 AM 64.0 °F - 62.1 °F 93% 30.09 in 6.0 mi Calm Calm - N/A   Overcast
7:51 AM 64.9 °F - 62.1 °F 90% 30.11 in 6.0 mi Calm Calm - N/A   Mostly Cloudy
8:51 AM 66.0 °F - 63.0 °F 90% 30.12 in 7.0 mi SW 3.5 mph - N/A   Mostly Cloudy
9:51 AM 69.1 °F - 64.0 °F 84% 30.13 in 10.0 mi SW 4.6 mph - N/A   Scattered Clouds
10:51 AM 69.1 °F - 64.0 °F 84% 30.11 in 10.0 mi SW 8.1 mph - N/A   Scattered Clouds
11:51 AM 77.0 °F - 66.0 °F 69% 30.10 in 10.0 mi West 5.8 mph - N/A   Scattered Clouds
12:51 PM 79.0 °F - 64.9 °F 62% 30.09 in 10.0 mi SSW 9.2 mph - N/A   Mostly Cloudy
1:51 PM 80.1 °F 81.5 °F 63.0 °F 56% 30.07 in 10.0 mi WSW 9.2 mph - N/A   Mostly Cloudy
2:51 PM 80.1 °F 81.9 °F 64.9 °F 60% 30.06 in 10.0 mi West 6.9 mph - N/A   Mostly Cloudy
3:51 PM 78.1 °F - 66.0 °F 66% 30.06 in 5.0 mi Calm Calm - 0.01 in Rain Light Rain
4:51 PM 72.0 °F - 68.0 °F 87% 30.07 in 5.0 mi NNW 20.7 mph 26.5 mph 0.13 in Rain Heavy Rain
5:51 PM 73.0 °F - 69.1 °F 87% 30.07 in 7.0 mi Calm Calm - 0.13 in   Overcast
6:51 PM 73.0 °F - 69.1 °F 87% 30.08 in 7.0 mi Calm Calm - N/A   Mostly Cloudy
7:51 PM 71.1 °F - 69.1 °F 93% 30.09 in 6.0 mi Calm Calm - N/A   Mostly Cloudy
8:51 PM 70.0 °F - 68.0 °F 93% 30.08 in 5.0 mi Calm Calm - N/A   Scattered Clouds
9:51 PM 70.0 °F - 66.9 °F 90% 30.09 in 5.0 mi Calm Calm - N/A   Scattered Clouds
10:51 PM 70.0 °F - 68.0 °F 93% 30.09 in 5.0 mi Calm Calm - N/A   Mostly Cloudy
11:51 PM 69.1 °F - 66.9 °F 93% 30.09 in 5.0 mi Calm Calm - N/A   Mostly Cloudy